User: anonymous   Login
Location: Unspecified
(0.0000°N, 0.0000°E)
Time: 18:03:11
(UTC+02:00)
Language:

Cosmos 2237 Rocket - Orbit

View from above orbital plane
View from above orbital plane
View from above satellite
View from above satellite

Ground track
Ground track

The orbit data is extracted from the following two-line orbital elements,

1 22566U 93016B   16148.20912112  .00000152  00000-0  10299-3 0  9990
2 22566  71.0044 157.1033 0010386 349.1211  10.9685 14.14925900196671
Epoch (UTC): 27 May 2016 05:01:08
Eccentricity: 0.0010386
inclination: 71.0044°
perigee height: 835 km
apogee height: 850 km
right ascension of ascending node: 157.1033°
argument of perigee: 349.1211°
revolutions per day: 14.14925900
mean anomaly at epoch: 10.9685°
orbit number at epoch: 19667

The dashed part of the orbit path shows where the satellite is in the earth's shadow,  

DLR